Home   Weather   Saint-Petersburg   Past weeks

Flag for Russia Past Weather in Saint-Petersburg, Russia — Yesterday and Last 2 Weeks

Now
55 °F

More clouds than sun.


Feels Like: 53 °F
Forecast: 53 / 57 °F
Wind: 10 mph from Southwest

Location: St. Petersburg

Current Time: Sep 29, 2016 at 2:56:47 PM

Latest Report: Sep 29, 2016 at 2:00 PM


Visibility: N/A

Pressure: 29.65 "Hg

Humidity: 82%

Dew Point: 50 °F

Location of Saint-PetersburgLocation

Past Weather in Saint-Petersburg — Graph

°F

Saint-Petersburg Temperature Yesterday

Maximum temperature yesterday: 52 °F (at 12:00 AM)
Minimum temperature yesterday: 48 °F (at 8:30 AM)
Average temperature yesterday: 50 °F

High & Low Weather Summary for the Past Weeks

 TemperatureHumidityPressure
High63 °F (Sep 15, 1:00 PM)100% (Sep 15, 2:30 AM)30.33 "Hg (Sep 15, 2:30 AM)
Low43 °F (Sep 19, 6:30 AM)54% (Sep 18, 1:00 PM)29.65 "Hg (Sep 29, 4:30 AM)
Average52 °F83%30.06 "Hg
* Reported Sep 14 1:00 PM — Sep 29 1:30 PM, Saint-Petersburg, Weather by CustomWeather, © 2016

Note: Actual official high and low records may vary slightly from our data, if they occured in-between our weather recording intervals... More about our weather records

Advertising

Saint-Petersburg Weather History for the Previous 24 Hours

Scroll right to see more
 ConditionsComfort  
Time TempWeatherWind HumidityBarometerVisibility
1:30 PM
Thu, Sep 29
54 °FMostly cloudy.6 mph88%29.65 "HgN/A
1:00 PM54 °FMostly cloudy.6 mph88%29.65 "HgN/A
12:30 PM52 °FMostly cloudy.3 mph94%29.65 "HgN/A
12:00 PM52 °FMostly cloudy.6 mph94%29.65 "Hg5 mi
11:30 AM52 °FMostly cloudy.3 mph94%29.65 "Hg5 mi
11:00 AM50 °FMostly cloudy.3 mph94%29.65 "Hg5 mi
10:30 AM50 °FMostly cloudy.8 mph94%29.65 "HgN/A
10:00 AM50 °FMostly cloudy.6 mph94%29.65 "HgN/A
9:30 AM50 °FMostly cloudy.6 mph94%29.65 "HgN/A
9:00 AM50 °FLight rain. Mostly cloudy.6 mph94%29.65 "Hg4 mi
8:30 AM50 °FLight rain. Mostly cloudy.6 mph94%29.65 "Hg6 mi
8:00 AM48 °FDrizzle. Low clouds.6 mph94%29.65 "Hg5 mi
7:30 AM50 °FLow clouds.3 mph88%29.65 "HgN/A
7:00 AM50 °FMostly cloudy.6 mph88%29.65 "HgN/A
6:30 AM50 °FMostly cloudy.3 mph88%29.65 "HgN/A
6:00 AM50 °FLight rain. Mostly cloudy.3 mph88%29.65 "HgN/A
5:30 AM50 °FLight rain. Mostly cloudy.3 mph88%29.65 "HgN/A
5:00 AM50 °FLight rain. Mostly cloudy.3 mph88%29.65 "HgN/A
4:30 AM50 °FLight rain. Mostly cloudy.3 mph88%29.65 "HgN/A
4:00 AM50 °FLight rain. Overcast.6 mph94%29.68 "HgN/A
3:30 AM50 °FLight rain. Overcast.6 mph88%29.68 "Hg6 mi
3:00 AM50 °FLight rain. Overcast.6 mph94%29.68 "HgN/A
2:30 AM50 °FLight rain. Passing clouds.3 mph94%29.68 "HgN/A
2:00 AM50 °FLight rain. Clear.6 mph94%29.71 "HgN/A
1:30 AM50 °FPassing clouds.6 mph94%29.71 "HgN/A
1:00 AM50 °FLight rain. Passing clouds.6 mph94%29.71 "HgN/A
12:30 AM50 °FLight rain. Passing clouds.6 mph94%29.74 "HgN/A
12:00 AM50 °FLight rain. Partly cloudy.6 mph94%29.74 "HgN/A
11:30 PM
Wed, Sep 28
52 °FLight rain. Partly cloudy.6 mph88%29.74 "HgN/A
11:00 PM52 °FPartly cloudy.6 mph88%29.74 "HgN/A
10:30 PM52 °FPassing clouds.6 mph88%29.77 "HgN/A
10:00 PM52 °FPassing clouds.6 mph88%29.77 "HgN/A
9:30 PM52 °FMostly cloudy.6 mph88%29.80 "HgN/A
9:00 PM50 °FLow clouds.8 mph94%29.80 "HgN/A
8:30 PM50 °FLow clouds.8 mph94%29.83 "HgN/A
8:00 PM50 °FLow clouds.8 mph94%29.83 "HgN/A
7:30 PM50 °FLow clouds.13 mph94%29.86 "HgN/A
7:00 PM50 °FLow clouds.10 mph94%29.86 "HgN/A
6:30 PM52 °FLow clouds.13 mph88%29.86 "HgN/A
6:00 PM52 °FLow clouds.13 mph94%29.89 "HgN/A
5:30 PM52 °FLow clouds.10 mph94%29.89 "HgN/A
5:00 PM52 °FLow clouds.10 mph94%29.89 "HgN/A
4:30 PM52 °FLow clouds.10 mph94%29.92 "HgN/A
4:00 PM52 °FLow clouds.10 mph94%29.92 "HgN/A
3:30 PM52 °FLow clouds.8 mph94%29.95 "HgN/A
3:00 PM52 °FLow clouds.8 mph94%29.95 "HgN/A
2:30 PM50 °FDrizzle. Low clouds.10 mph94%29.98 "Hg5 mi
2:00 PM50 °FDrizzle. Low clouds.8 mph94%30.01 "Hg5 mi
Weather by CustomWeather, © 2016

See weather overviewHow to use our weather pages